WX8TJG-WX Weather Reports


time (UTC)temp
F
wind
direction
speed
knots
gust
knots
rain 1hr
in
rain 24hr
in
rain mn
in
humidity
%
barometer
mb
20260508135016 54 244 4.3 10.4 0.00 0.02 0.02 68 1013.6
20260508134017 54 238 3.5 7.0 0.00 0.02 0.02 70 1013.7
20260508133017 53 221 3.5 7.0 0.00 0.02 0.02 71 1013.6
20260508132017 52 227 3.5 6.1 0.00 0.02 0.02 72 1013.6
20260508131017 52 227 2.6 5.2 0.00 0.02 0.02 73 1013.6
20260508130017 51 212 1.7 4.3 0.00 0.02 0.02 74 1013.6
20260508125018 51 228 1.7 4.3 0.00 0.02 0.02 74 1013.7
20260508124018 50 235 2.6 5.2 0.00 0.02 0.02 73 1013.7
20260508123018 50 230 2.6 4.3 0.00 0.02 0.02 73 1013.7
20260508122018 49 207 2.6 5.2 0.00 0.02 0.02 74 1013.5
20260508121018 49 208 2.6 7.0 0.00 0.02 0.02 74 1013.4
20260508120016 49 205 2.6 4.3 0.00 0.02 0.02 74 1013.4
20260508115016 48 200 2.6 7.0 0.00 0.02 0.02 75 1013.3
20260508114036 47 202 1.7 4.3 0.00 0.02 0.02 76 1013.1
20260508113016 47 204 2.6 7.0 0.00 0.02 0.02 77 1013.1
20260508112016 46 191 3.5 7.8 0.00 0.02 0.02 78 1013.1
20260508111016 45 191 3.5 8.7 0.00 0.02 0.02 79 1013.1
20260508110017 45 193 3.5 7.0 0.00 0.02 0.02 79 1013.1
20260508105016 45 189 3.5 7.0 0.00 0.02 0.02 80 1013.0
20260508104016 45 182 3.5 5.2 0.00 0.02 0.02 80 1012.9
20260508103025 45 180 3.5 7.0 0.00 0.02 0.02 80 1012.7
20260508102037 44 181 3.5 6.1 0.00 0.02 0.02 82 1012.7
20260508101037 44 174 2.6 5.2 0.00 0.02 0.02 82 1012.6
20260508100017 44 178 2.6 4.3 0.00 0.02 0.02 83 1012.6
20260508095018 45 175 3.5 5.2 0.00 0.02 0.02 83 1012.7
20260508094018 45 177 2.6 4.3 0.00 0.02 0.02 83 1012.8
20260508093038 45 181 2.6 6.1 0.00 0.02 0.02 83 1012.8
20260508092018 45 177 3.5 6.1 0.00 0.02 0.02 84 1012.8
20260508091018 44 175 2.6 5.2 0.00 0.02 0.02 85 1012.9
20260508090035 44 170 2.6 5.2 0.00 0.02 0.02 87 1012.9
20260508085015 43 172 2.6 4.3 0.00 0.02 0.02 90 1012.9
20260508084036 43 167 0.9 3.5 0.00 0.02 0.02 91 1013.0
20260508083016 43 179 0.9 2.6 0.00 0.02 0.02 91 1013.1
20260508082016 44 149 0.9 2.6 0.00 0.02 0.02 90 1013.0
20260508081036 44 152 0.9 2.6 0.00 0.02 0.02 90 1013.0
20260508080016 44 146 2.6 5.2 0.00 0.02 0.02 89 1013.1
20260508075017 45 164 1.7 4.3 0.01 0.02 0.02 88 1013.2
20260508074016 45 165 1.7 3.5 0.01 0.02 0.02 88 1013.2
20260508073017 46 171 2.6 4.3 0.01 0.02 0.02 88 1013.4
20260508072037 46 296 0.9 2.6 0.01 0.02 0.02 87 1013.8
20260508071017 46 313 3.5 7.0 0.01 0.02 0.02 87 1014.1
20260508070017 47 332 1.7 4.3 0.01 0.02 0.02 84 1014.0
20260508065018 47 325 3.5 7.8 0.00 0.01 0.01 84 1014.1
20260508064018 47 232 2.6 7.0 0.00 0.01 0.01 82 1014.1
20260508063020 46 219 2.6 7.0 0.01 0.01 0.01 83 1014.2
20260508062058 46 193 2.6 4.3 0.01 0.01 0.01 84 1014.1
20260508061018 46 204 0.9 2.6 0.01 0.01 0.01 83 1014.3
20260508060016 47 217 0.9 2.6 0.01 0.01 0.01 82 1014.3
20260508055016 47 254 2.6 6.1 0.01 0.01 0.01 80 1014.4
20260508054016 48 282 4.3 10.4 0.01 0.01 0.01 77 1014.6
20260508053016 47 265 2.6 6.1 0.00 0.00 0.00 76 1014.5
20260508052016 47 254 1.7 3.5 0.00 0.00 0.00 79 1014.3
20260508051016 46 0.0 0.0 0.00 0.00 0.00 82 1013.8
20260508050016 47 359 0.9 1.7 0.00 0.00 0.00 81 1013.8
20260508045016 46 136 1.7 2.6 0.00 0.00 0.00 81 1013.7
20260508044016 46 192 0.0 0.9 0.00 0.00 0.00 83 1013.8
20260508043017 46 131 0.9 1.7 0.00 0.00 0.00 82 1013.8
20260508042017 46 133 0.9 1.7 0.00 0.00 0.00 80 1013.7
20260508041037 46 33 0.0 0.9 0.00 0.00 0.00 79 1013.9
20260508040020 46 173 0.0 1.7 0.00 0.00 0.00 77 1013.9
20260508035037 46 0.0 0.0 0.00 0.00 0.00 78 1014.0
20260508034017 46 203 0.0 1.7 0.00 0.00 0.00 79 1013.9
20260508033018 47 139 1.7 2.6 0.00 0.00 0.00 76 1013.9
20260508032018 48 154 0.0 0.9 0.00 0.00 0.00 70 1014.0
20260508031018 48 317 0.9 3.5 0.00 0.00 0.00 71 1014.3
20260508030015 48 30 0.0 1.7 0.00 0.00 0.00 70 1014.3
20260508025017 47 326 0.9 1.7 0.00 0.00 0.00 69 1014.4
20260508024017 47 337 0.9 1.7 0.00 0.00 0.00 73 1014.1
20260508023037 48 1 0.0 1.7 0.00 0.00 0.00 69 1014.1
20260508022019 49 15 0.0 0.9 0.00 0.00 0.00 65 1014.1
20260508021016 50 337 0.9 1.7 0.00 0.00 0.00 62 1014.1
20260508020017 50 286 0.9 1.7 0.00 0.00 0.00 61 1014.1
20260508015017 50 264 0.9 1.7 0.00 0.00 0.00 60 1014.0
20260508014037 51 284 2.6 7.0 0.00 0.00 0.00 57 1014.0
20260508013016 51 275 1.7 5.2 0.00 0.00 0.00 57 1014.0
20260508012017 51 230 1.7 5.2 0.00 0.00 0.00 57 1013.8
20260508011017 50 279 5.2 9.6 0.00 0.00 0.00 57 1013.8
20260508010017 49 319 0.9 6.1 0.00 0.00 0.00 63 1013.6
20260508005037 48 0.0 0.0 0.00 0.00 0.00 62 1013.6
20260508004018 49 201 0.0 0.9 0.00 0.00 0.00 62 1013.4
20260508003018 50 291 0.0 0.0 0.00 0.00 0.00 58 1013.4
20260508002018 51 296 0.0 1.7 0.00 0.00 0.00 55 1013.3
20260508001018 52 283 1.7 4.3 0.00 0.00 0.00 53 1013.2
20260508000015 53 268 4.3 8.7 0.00 0.00 0.00 51 1013.2
20260507235016 53 272 3.5 7.0 0.00 0.00 0.00 50 1013.1
20260507234016 54 275 4.3 7.0 0.00 0.00 0.00 49 1013.1
20260507233016 55 288 4.3 7.8 0.00 0.00 0.00 48 1013.0
20260507232016 55 295 3.5 6.1 0.00 0.00 0.00 47 1013.0
20260507231056 55 314 3.5 7.0 0.00 0.00 0.00 47 1013.0
20260507230017 55 293 4.3 7.0 0.00 0.00 0.00 47 1013.2
20260507225017 55 326 4.3 7.8 0.00 0.00 0.00 48 1013.2
20260507224017 54 323 3.5 6.1 0.00 0.00 0.00 49 1013.2
20260507223057 54 292 4.3 8.7 0.00 0.00 0.00 48 1013.3
20260507222017 55 298 4.3 7.8 0.00 0.00 0.00 47 1013.4
20260507221018 55 300 6.1 9.6 0.00 0.00 0.00 47 1013.3
20260507220018 55 289 6.1 11.3 0.00 0.00 0.00 48 1013.3
20260507215018 55 278 5.2 11.3 0.00 0.00 0.00 49 1013.2
20260507214018 56 292 5.2 9.6 0.00 0.00 0.00 48 1013.0
20260507213018 56 295 5.2 10.4 0.00 0.00 0.00 47 1013.0
20260507212018 55 314 6.1 13.0 0.00 0.00 0.00 48 1013.0
20260507211016 56 313 6.1 12.2 0.00 0.00 0.00 48 1013.0
20260507210016 56 296 6.1 9.6 0.00 0.00 0.00 48 1013.0
20260507205016 56 321 6.1 10.4 0.00 0.00 0.00 47 1012.9
20260507204016 55 313 3.5 8.7 0.00 0.00 0.00 50 1012.9
20260507203018 55 331 6.1 10.4 0.00 0.00 0.00 48 1013.0
20260507202016 55 292 7.0 11.3 0.00 0.00 0.00 47 1012.9
20260507201017 55 326 7.0 12.2 0.00 0.00 0.00 48 1012.9
20260507200016 55 291 6.1 11.3 0.00 0.00 0.00 52 1012.9
20260507195037 54 281 7.0 11.3 0.00 0.00 0.00 52 1013.2
20260507194017 55 294 6.1 9.6 0.00 0.00 0.00 52 1013.3
20260507193017 54 288 7.0 12.2 0.00 0.00 0.00 55 1013.3
20260507192017 54 290 6.1 11.3 0.00 0.00 0.00 54 1013.3
20260507191018 54 292 7.8 13.0 0.00 0.00 0.00 55 1013.4
20260507190018 54 281 7.0 11.3 0.00 0.00 0.00 56 1013.4
20260507185018 53 270 7.8 11.3 0.00 0.00 0.00 56 1013.5
20260507184018 54 276 7.0 12.2 0.00 0.00 0.00 57 1013.5
20260507183040 53 275 7.0 11.3 0.00 0.00 0.00 58 1013.5
20260507182015 53 272 6.1 11.3 0.00 0.00 0.00 59 1013.6
20260507181036 52 279 7.0 11.3 0.00 0.00 0.00 59 1013.6
20260507180036 53 282 6.1 11.3 0.00 0.00 0.00 59 1013.6
20260507175016 53 273 7.8 11.3 0.00 0.00 0.00 59 1013.7
20260507174016 52 292 7.0 13.0 0.00 0.00 0.00 59 1013.7
20260507172036 53 287 5.2 11.3 0.00 0.00 0.00 59 1013.9
20260507171017 53 270 7.0 11.3 0.00 0.00 0.00 59 1014.0
20260507170017 53 284 6.1 11.3 0.00 0.00 0.00 58 1014.0
20260507165017 52 273 7.8 11.3 0.00 0.00 0.00 58 1014.0
20260507164017 52 263 5.2 9.6 0.00 0.00 0.00 56 1014.1
20260507163017 52 265 7.0 11.3 0.00 0.00 0.00 56 1014.0
20260507162017 52 271 6.1 11.3 0.00 0.00 0.00 55 1014.0
20260507161018 52 275 4.3 9.6 0.00 0.00 0.00 57 1013.9
20260507160018 52 258 5.2 9.6 0.00 0.00 0.00 57 1013.9
20260507155018 51 264 3.5 7.8 0.00 0.00 0.00 62 1013.9
20260507154018 51 272 5.2 10.4 0.00 0.00 0.00 58 1013.9
20260507153018 51 268 5.2 8.7 0.00 0.00 0.00 62 1013.8
20260507151016 50 277 5.2 8.7 0.00 0.00 0.00 63 1013.8
20260507150016 50 292 5.2 8.7 0.00 0.00 0.00 64 1013.9
20260507145016 50 287 5.2 9.6 0.00 0.00 0.00 64 1013.9
20260507144016 50 268 5.2 8.7 0.00 0.00 0.00 65 1014.0
20260507143016 49 286 4.3 7.0 0.00 0.00 0.00 67 1014.0
20260507142039 49 278 6.1 10.4 0.00 0.00 0.00 67 1014.0
20260507141036 48 276 4.3 7.8 0.00 0.00 0.00 70 1014.0
20260507140057 48 276 4.3 9.6 0.00 0.00 0.00 71 1014.1